Home   Weather   Bregenz   Past weeks

Flag for Austria Past Weather in Bregenz, Vorarlberg, Austria — Yesterday and Last 2 Weeks

Now
36 °F

Passing clouds.


Feels Like: 36 °F
Forecast: 38 / 47 °F
Wind: 1 mph from Southeast

Location: Bregenz

Current Time: Apr 30, 2017 at 8:58:47 am

Latest Report: Apr 30, 2017 at 8:00 am


Visibility: 16 mi

Pressure: 30.00 "Hg

Humidity: 95%

Dew Point: 35 °F

Location of BregenzLocation

Past Weather in Bregenz — Graph

°F

Bregenz Temperature Yesterday

Maximum temperature yesterday: 57 °F (at 6:00 pm)
Minimum temperature yesterday: 34 °F (at 7:00 am)
Average temperature yesterday: 44 °F

High & Low Weather Summary for the Past Weeks

 TemperatureHumidityPressure
High65 °F (Apr 24, 6:00 pm)97% (Apr 19, 3:00 am)30.58 "Hg (Apr 19, 3:00 am)
Low29 °F (Apr 20, 6:00 am)13% (Apr 21, 6:00 pm)29.74 "Hg (Apr 26, 1:00 am)
Average43 °F76%30.14 "Hg
* Reported Apr 15 7:00 am — Apr 30 7:00 am, Bregenz, Weather by CustomWeather, © 2017

Note: Actual official high and low records may vary slightly from our data, if they occured in-between our weather recording intervals... More about our weather records

Advertising

Bregenz Weather History for the Previous 24 Hours

Scroll right to see more
 ConditionsComfort  
Time TempWeatherWind HumidityBarometerVisibility
7:00 am
Sun, Apr 30
35 °FSunny.1 mph95%30.00 "Hg16 mi
6:00 am35 °FChilly.1 mph94%30.01 "HgN/A
5:00 am35 °FChilly.1 mph94%30.01 "HgN/A
4:00 am36 °FChilly.1 mph93%30.02 "HgN/A
3:00 am37 °FChilly.No wind92%30.01 "HgN/A
2:00 am38 °FChilly.1 mph91%30.01 "HgN/A
1:00 am39 °FChilly.No wind88%30.02 "HgN/A
12:00 am41 °FQuite cool.2 mph84%30.02 "HgN/A
11:00 pm
Sat, Apr 29
42 °FQuite cool.1 mph81%30.02 "HgN/A
10:00 pm45 °FCool.No wind70%30.01 "HgN/A
9:00 pm48 °FCool.3 mph59%30.00 "HgN/A
8:00 pm51 °FCool.1 mph61%29.99 "HgN/A
7:00 pm55 °FRefreshingly cool.2 mph44%29.99 "HgN/A
6:00 pm57 °FRefreshingly cool.3 mph40%30.00 "HgN/A
5:00 pm56 °FRefreshingly cool.2 mph44%30.00 "HgN/A
4:00 pm54 °FCool.3 mph46%30.02 "HgN/A
3:00 pm52 °FCool.3 mph50%30.04 "HgN/A
2:00 pm50 °FPassing clouds.2 mph54%30.06 "Hg9 mi
1:00 pm51 °FCool.2 mph52%30.07 "HgN/A
12:00 pm48 °FCool.1 mph56%30.10 "HgN/A
11:00 am45 °FPassing clouds.2 mph61%30.12 "Hg9 mi
10:00 am42 °FQuite cool.5 mph70%30.14 "HgN/A
9:00 am40 °FQuite cool.2 mph83%30.14 "HgN/A
8:00 am35 °FSunny.2 mph94%30.17 "Hg7 mi
Weather by CustomWeather, © 2017

See weather overviewHow to use our weather pages